Theta_e
332 342 347 341 355 357 350 351 347 350 350 347 346 349 346 349 352 351 343 339 336 338 344 345 343 349 348 335 341 342 349 350 351 350 351 352 352 351 351 352 351 352 353 353 352 353 352 350 348
339 341 341 346 358 355 350 347 351 350 349 346 345 346 347 350 344 341 337 335 336 340 343 344 343 349 349 349 336 348 350 351 350 351 351 351 352 352 352 352 352 350 352 352 352 352 352 349 345
345 344 348 354 358 352 353 347 349 348 347 345 345 342 343 346 342 339 336 337 340 343 345 347 344 350 350 349 349 350 351 351 350 350 351 351 350 352 352 352 352 352 353 353 351 351 346 342 343
350 340 354 360 358 349 348 349 347 343 345 345 345 345 341 340 339 338 336 340 342 345 342 346 350 351 351 351 349 350 351 351 351 352 352 351 352 352 352 353 353 353 352 352 353 350 341 336 339
342 348 353 360 352 347 348 346 345 348 344 347 343 344 343 341 338 340 342 342 345 345 343 350 349 351 349 345 350 350 351 351 350 350 350 353 352 352 352 353 352 353 350 350 352 350 337 338 345
351 351 357 359 352 349 348 345 345 345 346 347 346 345 343 344 343 342 341 345 346 345 345 351 348 346 349 345 345 349 351 351 348 352 353 351 353 353 353 353 352 352 351 350 346 333 329 333 335
348 352 358 356 356 354 351 348 345 345 345 345 342 349 345 345 345 343 345 344 346 346 346 347 350 348 349 350 350 351 351 352 351 351 352 351 351 352 352 352 352 352 352 348 344 340 333 327 330
345 352 359 358 352 353 348 347 345 346 346 341 339 346 349 343 347 346 343 343 345 346 346 349 347 347 349 350 351 351 351 349 350 350 351 352 349 349 350 345 348 347 346 343 340 340 338 333 333
345 356 357 359 357 353 348 347 347 344 345 344 342 341 342 344 345 344 343 342 344 346 348 348 346 347 348 348 351 348 348 352 350 344 345 345 341 340 345 341 342 341 340 340 339 339 339 335 336
350 352 356 353 354 356 350 345 344 346 346 344 343 341 343 342 343 344 345 344 343 341 345 344 348 348 344 349 349 344 345 342 339 343 347 348 348 347 344 340 340 340 338 338 339 343 344 342 342
346 356 350 353 353 353 353 345 343 346 348 345 344 340 342 342 341 342 343 343 345 338 337 335 344 347 348 343 342 341 343 344 347 342 341 347 349 347 337 338 339 338 337 338 339 342 345 346 348
359 355 351 348 348 352 353 348 348 347 347 344 342 339 341 340 339 340 345 343 341 335 335 341 345 346 345 346 346 345 347 346 346 347 349 340 343 342 343 335 337 340 344 343 345 347 348 349 347
350 349 352 348 352 350 352 352 350 348 347 344 342 342 340 341 341 342 345 345 340 341 342 339 338 346 345 345 348 345 346 343 346 344 343 346 345 345 347 348 348 347 346 344 345 347 347 346 344
348 350 352 353 352 349 350 353 350 346 345 344 344 342 341 342 340 342 344 347 347 346 347 345 344 347 338 333 339 345 345 344 342 336 343 347 347 347 349 346 348 348 349 342 348 347 349 345 344
345 357 353 353 352 352 348 354 355 344 344 343 344 343 342 342 340 341 345 345 347 348 349 348 349 346 347 344 345 341 343 344 346 345 343 348 347 346 350 348 348 349 349 350 348 348 349 349 343
359 355 357 351 351 347 348 355 351 350 345 342 344 345 342 342 343 342 342 345 347 348 346 345 345 346 346 348 344 344 341 348 347 343 340 341 346 350 348 347 347 346 344 344 346 348 349 344 343
354 357 358 354 349 353 354 351 347 349 348 343 344 344 344 343 343 343 342 346 347 346 346 346 346 343 346 344 348 343 346 345 343 346 347 348 349 348 346 336 342 338 341 348 346 350 351 350 343
357 356 357 354 353 354 353 357 350 348 349 350 344 345 345 345 345 344 343 347 347 347 348 347 348 344 347 347 347 344 342 346 345 349 348 347 349 348 343 337 334 334 341 343 349 350 354 350 350
348 353 352 347 346 354 356 357 354 351 350 351 346 344 345 345 343 345 345 345 346 344 348 348 348 347 346 348 346 343 342 346 347 342 346 343 349 348 340 342 335 333 337 331 346 349 347 347 347
342 354 355 348 347 354 356 356 353 350 350 349 346 348 345 345 345 346 343 346 346 344 348 347 348 348 347 350 348 347 348 347 350 350 350 346 350 347 345 336 333 336 339 338 347 349 342 341 343
332 351 359 358 356 354 357 357 356 349 346 346 345 351 347 344 346 344 344 346 346 344 349 347 347 348 351 349 348 347 347 349 349 349 348 349 348 350 345 344 334 336 340 336 342 331 347 337 336
331 344 347 348 356 358 352 358 357 354 348 348 353 352 349 344 345 344 343 346 347 346 349 348 347 347 350 348 347 348 346 350 350 348 349 347 348 353 351 349 349 347 349 349 351 350 350 345 334
329 340 340 348 352 356 355 351 355 352 356 356 354 351 346 345 343 344 344 345 348 350 350 349 348 346 344 348 346 350 351 348 349 351 349 348 348 350 352 352 351 352 353 353 355 354 353 353 349
327 328 332 339 341 348 350 349 354 356 352 352 346 345 344 343 342 343 344 345 348 350 350 349 349 349 350 350 350 349 349 346 344 349 349 352 351 348 349 353 351 352 353 352 354 353 353 353 353
328 327 328 333 336 355 348 353 356 349 351 350 346 344 342 340 344 342 342 344 347 348 353 352 353 350 349 349 349 349 349 347 348 348 350 352 352 352 352 353 352 353 351 353 352 350 348 351 350
323 327 333 345 348 351 349 357 355 348 344 349 349 349 349 348 345 344 343 345 346 346 352 353 352 349 347 347 351 349 350 350 349 353 351 352 349 350 352 353 350 354 353 353 353 351 352 354 352
324 325 337 348 347 342 350 353 349 343 346 347 349 349 351 351 348 343 344 345 347 347 350 352 354 351 350 348 352 353 352 350 351 351 353 351 351 349 350 348 346 353 353 353 351 353 351 352 352
336 335 334 339 348 349 356 352 356 348 350 348 351 351 352 353 350 346 343 345 348 349 352 353 351 351 351 352 355 353 350 350 352 352 351 353 347 347 348 343 349 352 353 353 353 350 351 352 351
337 336 334 336 344 351 356 355 347 350 348 348 349 352 354 352 349 347 348 346 348 349 353 354 355 353 352 350 352 353 351 349 350 352 350 351 353 351 344 351 349 352 351 354 354 353 351 353 351
336 336 333 336 348 346 347 350 346 348 348 343 346 353 349 348 348 348 346 347 348 348 355 355 356 356 354 353 353 353 353 351 351 352 349 349 354 352 352 354 354 355 352 354 354 353 352 354 352
Wind_Speed
1 3 5 6 4 2 4 2 11 16 6 9 5 8 9 6 4 7 23 24 25 21 19 16 16 16 21 21 14 14 15 14 15 15 16 16 16 17 17 17 16 16 17 16 16 14 13 15 16
2 6 6 2 3 3 2 11 12 9 12 11 19 21 18 13 12 18 19 28 24 20 19 19 19 19 20 19 19 15 15 15 16 16 16 16 16 16 16 15 15 16 17 16 16 15 13 14 16
7 13 4 3 1 4 6 9 15 16 20 20 10 14 8 10 17 19 26 27 21 19 18 19 20 20 20 20 19 16 16 15 15 16 16 16 16 16 15 15 14 15 16 15 15 13 12 13 14
4 8 0 4 8 13 10 15 14 16 22 23 19 12 11 23 14 23 29 24 18 21 19 17 19 20 18 19 18 16 15 15 14 14 16 16 16 15 15 14 15 15 14 13 13 11 12 13 14
19 1 0 5 4 15 16 15 15 3 20 22 26 22 17 23 34 34 29 24 23 20 20 19 17 18 17 18 16 16 16 15 15 15 15 16 15 15 14 14 14 15 13 12 12 11 12 13 13
5 2 3 2 10 8 10 13 9 12 23 21 25 18 9 32 31 29 29 28 21 22 21 18 17 17 15 16 17 16 15 15 15 14 15 15 14 14 13 13 13 14 13 12 11 11 11 12 13
5 3 3 8 14 9 12 13 9 11 17 17 22 16 14 23 31 30 23 24 25 21 23 19 18 16 16 15 15 15 15 15 13 13 14 14 14 13 12 12 12 12 11 10 10 11 10 11 12
5 2 4 8 5 4 10 11 17 16 16 23 20 14 13 17 35 31 18 25 19 23 23 20 17 17 16 15 14 14 14 13 13 13 14 13 14 13 12 12 11 11 10 10 10 9 9 9 11
6 3 2 5 9 7 14 9 15 19 17 6 3 17 23 30 40 33 25 24 22 22 24 19 16 17 15 16 14 14 14 13 13 12 13 15 14 13 12 10 11 9 8 8 7 7 6 9 11
7 4 4 3 8 10 7 8 15 16 14 11 18 19 31 28 32 26 23 22 31 26 22 13 16 18 15 15 17 17 17 16 15 14 14 13 12 7 7 8 8 8 7 7 7 5 4 5 6
10 6 7 4 12 9 9 7 10 14 14 16 17 15 22 21 18 28 25 32 27 23 18 23 14 20 17 16 16 17 18 17 14 7 15 11 8 12 6 10 9 8 7 7 5 5 7 7 6
11 6 11 10 10 7 11 7 5 16 17 20 18 14 13 15 11 13 27 36 35 27 16 23 18 17 18 17 13 11 14 10 13 7 8 9 13 8 7 10 10 8 6 6 3 6 5 8 8
9 6 13 12 8 10 17 10 4 13 13 17 18 14 10 10 11 18 33 35 34 30 19 26 20 19 14 16 15 13 13 15 11 11 14 5 5 1 3 17 15 12 11 11 8 7 4 3 4
3 4 8 13 11 12 0 8 6 13 17 17 18 11 8 6 12 20 26 29 29 26 25 28 25 16 13 10 15 11 14 19 14 13 9 6 1 3 3 4 9 12 11 11 11 6 5 5 0
5 2 6 7 6 3 3 4 4 10 15 16 16 13 7 6 17 19 21 30 32 31 29 27 23 19 15 15 12 14 20 12 12 10 7 4 1 2 4 1 7 4 1 5 2 6 6 7 9
7 6 4 3 2 3 3 2 17 10 8 12 16 8 13 9 13 15 28 32 37 34 28 25 21 18 19 18 11 8 7 14 14 6 6 3 5 4 0 6 13 8 9 2 2 8 13 9 9
1 4 4 1 4 5 1 4 15 12 10 2 16 17 13 8 4 18 24 33 34 30 28 23 19 14 15 13 8 9 9 14 11 9 7 6 4 4 4 11 8 10 8 3 8 10 14 14 11
5 4 6 4 5 5 5 4 5 10 9 7 15 14 12 11 8 13 25 27 34 29 29 24 24 19 13 9 11 10 10 11 7 3 8 8 8 8 7 5 9 6 5 5 4 16 17 17 14
12 14 12 5 13 6 5 8 16 11 9 3 8 14 13 13 13 18 28 31 28 24 24 26 24 19 18 14 10 8 17 12 11 13 10 7 10 8 5 1 5 6 13 3 8 18 12 12 14
9 20 9 5 11 10 5 2 4 4 4 1 3 10 16 13 14 17 24 29 30 27 25 28 24 19 18 12 12 8 5 4 11 13 12 9 10 18 17 3 12 3 2 8 14 18 10 20 17
7 16 12 9 13 2 6 2 4 4 4 4 7 7 9 18 19 11 26 29 29 29 28 30 24 20 15 11 10 9 10 5 12 14 10 8 11 7 4 8 5 7 7 3 10 9 9 4 9
5 11 13 12 9 4 7 3 6 6 9 8 10 7 6 15 18 15 18 27 32 32 33 32 28 24 18 12 13 8 11 6 10 9 11 13 8 5 7 5 2 5 7 4 7 2 4 4 1
7 7 8 12 9 6 7 2 3 5 9 9 10 15 5 13 16 19 21 27 34 33 37 33 28 22 21 17 14 12 12 8 8 5 12 15 14 9 7 7 3 1 1 4 4 3 4 5 3
8 8 7 4 5 3 6 7 4 6 13 16 14 18 11 16 13 14 28 27 32 33 34 34 30 26 22 20 18 14 10 10 10 11 13 14 11 7 9 9 8 8 4 3 2 3 2 2 1
3 2 4 5 3 1 8 6 3 7 8 16 22 23 21 18 16 13 16 23 32 31 33 34 33 28 24 20 18 15 13 10 10 10 9 8 7 5 8 8 7 6 4 3 2 4 2 2 4
5 5 3 1 2 3 3 1 5 7 7 7 8 15 13 16 11 15 14 23 33 33 35 34 35 31 26 23 19 18 15 12 11 11 10 7 7 8 9 15 9 6 6 5 6 7 5 3 3
5 5 8 6 2 2 1 3 4 7 8 13 14 12 14 12 7 15 21 23 33 32 34 35 36 33 30 27 22 22 19 16 13 10 7 8 8 11 12 12 9 9 8 9 7 7 7 7 5
8 3 6 4 2 3 2 2 4 11 12 10 15 13 17 13 8 4 15 25 33 33 36 36 39 36 33 30 26 24 21 18 18 10 8 8 12 12 9 5 6 7 6 10 7 9 8 7 5
6 3 4 3 4 3 2 2 4 5 10 12 15 5 12 8 16 5 11 9 32 32 36 36 35 36 33 30 29 26 24 21 21 15 15 15 10 8 6 7 5 6 7 6 7 7 8 7 7
4 2 4 4 3 3 3 5 7 4 10 15 20 7 6 12 15 2 11 16 9 29 33 36 35 34 34 31 30 29 26 24 22 20 17 15 13 12 10 9 9 9 8 9 8 9 7 8 8
Wind_Direction
315 26 231 43 39 34 125 16 134 113 91 35 67 111 111 127 74 128 143 149 152 147 140 144 137 133 131 115 127 128 132 128 121 118 114 110 112 110 110 105 106 108 110 109 111 109 110 105 106
241 223 57 97 73 76 30 89 104 97 111 117 85 90 80 84 80 120 121 153 151 149 146 140 134 130 128 131 133 137 132 128 123 119 116 114 112 111 109 111 108 110 111 109 110 110 111 111 113
87 45 19 14 324 146 125 102 108 127 145 113 106 87 76 104 122 137 153 150 153 149 143 136 135 131 131 130 132 133 129 123 121 118 115 115 115 114 111 109 113 117 114 108 111 112 115 121 123
84 32 185 228 230 108 124 91 66 93 112 112 115 77 99 124 118 141 148 153 153 145 143 134 135 131 131 131 130 131 126 127 126 122 122 122 119 119 111 110 112 121 119 115 117 117 124 127 133
36 23 178 301 42 101 97 106 105 93 100 100 103 116 115 122 138 141 149 146 137 142 134 133 135 128 131 131 134 134 132 130 126 128 130 129 126 121 116 114 111 116 118 120 125 127 124 134 140
88 217 357 294 114 95 108 123 107 108 109 117 113 126 119 133 137 148 151 138 141 134 134 130 128 130 131 130 134 135 135 131 131 134 133 133 132 128 126 120 118 122 120 124 122 123 128 138 151
98 100 229 294 119 113 126 137 130 136 113 119 125 117 135 145 143 141 137 152 139 140 136 137 137 134 134 134 139 141 145 141 143 139 135 140 140 137 134 129 126 125 129 125 128 126 127 132 145
52 8 354 306 60 90 85 110 156 130 130 125 124 124 153 151 141 139 144 156 132 135 135 139 142 142 141 142 146 148 152 146 147 148 145 146 145 145 143 139 135 135 137 139 138 136 136 127 137
357 338 303 322 36 307 108 109 150 124 106 90 97 135 149 144 135 150 154 145 124 135 144 142 141 140 147 151 151 153 147 149 150 141 147 140 130 138 145 152 145 140 140 145 144 133 134 146 154
122 249 248 345 296 287 311 130 133 130 127 114 125 139 140 144 140 148 154 146 123 114 134 149 153 163 159 154 163 157 141 137 140 160 152 145 147 152 154 166 153 150 152 159 171 155 166 180 176
170 207 176 182 267 273 305 88 131 138 126 147 152 140 131 146 146 158 157 146 128 135 147 171 188 174 163 169 151 142 150 164 166 164 143 127 162 188 211 185 173 167 171 178 194 230 260 252 245
39 259 165 172 213 301 347 83 58 110 140 145 137 137 134 150 162 169 124 125 143 142 145 164 173 157 172 162 160 165 167 152 152 171 160 126 142 185 185 212 194 199 203 227 250 265 296 301 267
143 276 178 155 93 347 308 49 44 126 148 141 131 146 144 153 159 152 137 138 149 158 161 171 182 177 163 182 185 180 195 169 160 144 159 165 161 213 185 236 241 242 257 257 255 261 260 286 22
229 296 109 81 136 183 0 330 350 128 157 158 141 150 128 146 141 124 140 145 149 148 157 156 162 153 151 188 195 194 195 166 161 138 125 94 76 188 236 237 239 256 251 255 274 218 241 266 79
212 238 127 110 113 142 158 341 338 133 139 146 156 116 111 109 147 159 161 143 147 151 158 164 153 161 160 150 158 157 157 176 172 167 144 79 52 95 1 327 343 293 161 160 158 264 264 262 169
31 248 78 138 154 215 249 346 293 345 170 164 151 133 155 188 155 149 142 143 147 155 157 149 156 166 161 157 156 160 171 155 151 138 148 155 100 75 159 21 1 356 341 87 223 295 304 201 182
325 117 106 350 145 138 242 174 268 334 342 221 146 153 146 160 113 155 152 141 147 152 152 151 163 156 157 154 176 159 138 134 153 155 145 130 106 77 33 28 4 323 348 349 326 325 301 272 210
182 131 61 31 9 206 153 138 132 246 323 317 155 149 152 147 143 165 154 137 149 154 157 158 167 158 165 157 129 154 145 126 165 143 143 158 105 81 58 11 24 37 90 354 38 354 21 35 62
159 114 123 134 263 282 229 162 192 219 252 314 331 157 153 165 178 184 140 145 147 149 150 156 171 165 159 165 165 153 155 129 153 152 165 156 106 90 27 229 108 69 106 89 326 337 352 34 18
184 139 130 181 227 232 126 204 205 247 235 257 0 324 153 165 172 187 156 151 158 162 159 165 167 160 167 151 156 173 169 205 164 139 154 146 129 122 109 58 167 157 107 326 11 7 21 53 48
266 158 168 162 206 66 121 213 211 217 260 276 277 257 276 165 167 176 164 160 161 167 160 166 166 167 157 154 174 148 154 174 163 162 163 150 151 136 135 149 162 157 217 48 50 48 312 153 79
314 131 160 145 160 195 185 230 216 183 236 242 260 252 338 177 181 167 177 161 164 170 168 170 174 178 178 178 172 169 179 127 173 180 165 158 160 159 162 148 33 22 19 16 65 162 153 84 21
253 175 189 166 187 130 198 167 203 122 205 226 244 258 221 273 180 175 182 169 169 170 176 175 177 179 184 183 189 192 168 159 139 104 178 168 175 196 164 183 157 224 338 360 336 355 35 41 340
359 346 330 242 145 227 212 169 205 183 206 192 214 250 241 242 246 186 181 173 170 170 177 177 181 179 180 185 191 187 183 199 150 152 165 187 185 190 190 181 201 207 206 249 342 330 336 14 13
223 298 303 325 354 198 49 344 276 182 181 189 200 220 229 233 232 195 179 157 169 174 169 175 182 183 187 191 192 192 186 172 141 161 193 194 154 172 203 187 177 213 228 222 279 307 287 300 293
302 211 135 11 287 323 355 322 290 343 178 190 227 244 243 248 211 191 196 168 172 174 171 175 185 188 191 194 196 191 186 195 181 195 201 166 153 131 152 174 180 224 236 246 246 270 297 266 295
272 351 138 111 131 280 200 353 302 359 1 346 251 234 253 284 203 188 165 180 178 177 175 175 180 189 189 192 192 198 197 197 199 209 213 201 173 176 166 182 210 198 234 255 248 270 265 278 272
93 336 25 21 60 306 243 161 266 324 319 325 300 189 200 260 301 221 208 181 176 175 175 177 184 187 192 189 193 199 201 199 198 204 203 181 186 207 208 211 178 214 235 253 250 258 250 271 287
13 41 69 164 99 128 354 344 244 299 309 320 301 178 167 246 279 298 36 296 178 172 173 178 180 183 189 186 193 198 202 205 207 209 214 194 201 220 241 196 227 234 232 251 252 267 276 268 264
99 130 128 119 181 120 142 258 170 143 306 333 281 112 164 187 233 171 49 14 353 177 171 175 179 182 188 188 196 195 200 201 202 204 210 204 212 222 208 210 218 239 231 227 242 261 263 260 277